Theta_e
294 289 286 289 291 290 289 286 286 288 292 290 289 290 292 293 293 293 294 294 294 295 298 300 305 313 319 322 325 327 327 326 327 328 329 329 328 329 329 328 328 327 326 321
289 286 291 293 292 290 288 286 284 289 292 290 288 289 291 293 294 294 295 294 295 295 296 298 299 299 302 306 317 324 328 327 327 327 329 329 329 328 330 330 328 327 326 323
287 290 294 292 289 288 286 286 285 287 289 288 286 285 287 291 293 294 294 295 295 295 296 297 300 300 301 300 300 303 318 327 327 327 327 325 327 325 326 327 328 327 326 324
289 292 292 289 289 289 285 289 289 288 284 280 285 278 284 288 290 291 293 293 294 296 297 300 302 302 303 306 308 306 304 308 327 326 326 325 324 323 326 327 327 327 326 324
287 289 288 288 290 290 287 290 288 287 283 281 280 279 283 286 288 290 291 292 292 295 297 299 300 304 305 308 307 306 303 302 307 326 326 325 325 326 325 325 325 325 325 326
289 291 291 290 290 291 291 288 288 285 282 277 280 280 280 284 288 289 290 291 295 296 297 298 300 303 304 307 307 307 300 300 305 321 322 324 325 323 322 323 324 324 324 323
286 287 289 291 288 290 289 284 277 276 276 276 281 279 283 287 289 290 292 293 294 295 296 297 298 299 300 302 306 308 307 308 312 314 318 322 319 323 322 322 323 322 321 319
282 280 287 290 289 287 286 285 279 274 274 276 279 278 284 289 288 290 293 294 294 294 296 297 298 298 300 300 305 306 307 307 309 310 311 313 315 319 319 320 320 319 320 318
282 282 288 290 290 291 286 283 287 279 270 275 278 282 288 290 288 290 292 294 294 295 296 296 298 299 299 300 301 303 304 305 307 308 308 308 311 313 312 312 312 311 310 308
287 282 287 288 290 289 287 289 281 280 270 270 275 278 281 285 288 288 292 292 293 295 295 295 296 297 298 299 299 301 301 301 302 304 304 306 309 310 310 309 307 306 306 305
288 285 283 287 285 284 285 283 284 284 280 275 272 277 284 287 289 289 290 293 293 294 294 294 295 295 295 296 296 297 298 299 300 301 301 301 301 301 301 301 302 302 302 300
289 286 280 283 287 289 287 286 286 280 277 278 278 281 286 287 290 290 290 294 294 295 294 294 294 294 293 293 294 294 295 296 297 297 297 297 297 297 296 296 296 296 298 297
291 283 274 279 284 286 284 285 286 285 282 279 275 281 289 288 288 290 291 293 294 293 293 293 293 292 291 291 292 292 293 293 293 293 292 292 292 292 292 293 293 292 292 292
295 286 282 279 281 286 284 286 287 286 280 281 281 284 286 288 290 290 291 292 292 293 293 293 291 291 291 291 290 290 290 290 290 290 290 289 289 289 289 289 289 289 289 288
292 279 283 282 285 285 283 284 286 285 286 281 285 284 288 288 290 291 292 292 292 293 293 292 291 290 289 288 288 288 288 289 289 288 287 287 287 287 286 286 286 285 285 285
290 277 283 278 285 285 281 285 286 287 287 286 286 284 289 289 292 290 292 293 293 293 293 293 291 290 288 288 287 288 287 287 287 285 284 284 284 283 283 284 284 284 284 284
288 282 277 272 283 284 281 285 285 287 289 288 284 289 289 287 290 291 292 294 294 295 294 292 292 290 289 288 288 287 286 285 283 282 282 282 282 282 282 283 282 282 281 282
285 282 282 277 280 275 284 289 290 288 288 290 290 289 289 290 291 293 294 294 294 294 294 293 292 290 288 287 287 285 284 282 282 281 281 281 281 280 281 281 281 280 281 281
291 285 281 279 267 279 285 286 284 284 286 291 290 292 291 291 289 291 294 296 297 296 296 294 292 289 287 286 285 283 282 281 281 280 280 279 279 278 278 278 279 279 278 279
290 290 285 276 273 272 282 288 291 289 283 290 292 293 292 289 286 292 293 296 294 294 293 290 288 287 286 284 283 282 281 280 279 279 279 278 277 277 276 277 275 275 275 279
285 285 282 283 279 277 285 285 291 281 282 286 290 292 290 288 293 291 293 291 291 291 288 287 287 286 285 283 282 280 279 277 278 277 276 275 275 274 274 273 273 271 272 275
284 284 282 283 281 278 286 286 287 288 285 287 288 289 287 288 288 288 289 287 287 285 285 285 283 282 282 281 281 278 277 276 275 275 275 272 271 275 274 272 269 269 270 270
283 286 284 285 283 286 285 284 287 288 287 285 285 285 287 286 285 284 283 283 282 282 281 281 280 278 278 278 279 276 274 274 274 273 270 271 273 272 271 270 271 271 267 267
283 282 283 285 283 284 286 287 287 288 287 286 285 285 285 284 285 284 282 281 280 279 278 277 278 277 274 274 274 274 273 272 271 271 273 273 273 273 272 272 272 266 266 266
285 284 282 281 284 283 285 285 288 287 286 286 285 285 285 285 284 283 280 278 279 278 276 277 276 275 272 271 269 269 270 271 272 272 272 272 271 270 268 271 268 269 269 269
284 285 285 284 286 288 286 286 287 286 287 285 285 284 284 285 283 280 278 278 277 276 275 274 273 272 270 269 269 269 270 271 272 270 271 270 270 268 269 267 268 277 277 279
Wind_Speed
4 5 7 10 11 6 7 6 6 1 1 4 6 6 10 8 5 8 8 7 6 9 9 8 7 8 9 8 11 13 14 11 9 6 7 6 8 6 5 5 8 9 8 9
5 5 9 8 6 5 3 6 3 1 1 3 2 11 11 7 8 8 9 9 9 5 5 7 8 6 6 6 7 9 14 14 12 9 8 5 5 4 6 5 5 7 9 9
9 9 7 8 6 7 4 6 5 5 3 1 3 8 7 9 7 8 8 7 7 9 10 6 6 5 3 2 1 4 7 12 13 12 7 3 3 2 4 5 6 5 7 9
7 5 14 6 6 7 6 5 6 8 4 3 4 6 6 6 8 7 11 9 8 7 6 5 6 4 3 2 3 3 1 3 9 10 10 12 9 8 5 6 5 6 7 7
7 8 7 6 9 9 6 6 8 4 3 4 1 1 10 2 5 9 10 9 8 8 9 8 6 4 3 3 2 3 5 3 3 10 10 9 8 7 3 3 6 6 6 8
3 0 3 7 4 7 9 9 9 6 4 2 7 7 8 6 8 5 4 6 9 9 8 7 6 5 3 2 2 3 4 5 5 7 8 10 9 6 4 4 6 5 5 5
3 2 2 3 9 7 9 8 3 3 2 7 2 3 9 5 7 7 8 10 9 8 8 7 6 4 2 2 2 4 4 4 4 6 6 7 5 7 6 6 5 5 4 3
8 4 6 3 7 10 8 9 8 9 6 5 2 9 9 4 1 0 7 8 7 6 6 8 6 5 4 3 4 4 4 6 7 7 7 6 5 5 3 3 2 2 1 1
6 3 2 3 2 11 6 6 6 8 3 4 5 8 9 5 4 1 7 8 8 8 8 7 6 6 5 4 4 5 6 6 6 6 6 6 6 7 4 5 5 4 4 4
5 6 2 1 1 2 6 8 4 3 5 4 6 8 8 6 10 6 7 10 9 9 8 7 6 6 4 5 5 6 7 7 6 7 6 6 8 6 6 6 7 6 5 5
4 6 2 4 7 9 4 4 3 6 7 7 2 9 8 11 13 16 14 9 9 9 9 8 7 5 6 5 6 6 6 7 7 7 7 7 6 7 7 7 6 6 7 6
4 6 5 9 5 4 2 7 8 6 5 2 4 14 3 3 7 10 10 13 9 8 8 7 7 7 6 6 6 6 6 7 6 6 8 7 7 7 8 7 6 6 7 6
10 3 4 6 6 3 5 3 5 4 4 9 8 17 2 4 1 6 9 8 8 8 9 8 7 7 7 7 6 6 6 6 6 8 8 7 7 7 7 6 6 6 6 6
11 4 12 15 6 10 7 7 10 8 4 11 12 19 4 5 8 7 6 8 9 11 13 11 7 7 7 7 7 6 6 6 7 8 8 8 7 6 6 6 6 7 6 7
8 8 5 2 5 6 5 12 15 19 28 11 30 13 17 9 10 11 9 9 13 13 11 12 11 9 7 8 7 6 6 7 7 8 8 7 6 6 7 7 6 7 7 6
1 2 5 2 7 5 3 12 22 26 23 19 16 19 6 10 10 7 12 13 13 14 15 13 12 12 12 11 10 9 8 8 8 8 8 6 6 6 7 6 6 6 6 6
7 6 5 6 4 6 7 32 15 18 21 24 22 37 5 5 9 13 14 17 18 16 16 18 19 16 13 12 12 11 10 8 9 8 6 6 7 7 6 6 5 5 4 2
5 7 3 3 4 7 17 8 20 19 14 23 21 10 9 10 10 12 13 18 17 14 16 16 14 13 12 9 9 9 8 8 8 7 7 6 6 4 5 4 4 4 3 4
9 6 3 6 6 9 19 6 8 11 24 18 22 18 13 9 4 14 10 14 22 21 17 16 15 15 13 14 12 12 10 9 8 7 7 7 5 5 4 5 3 2 3 4
3 3 10 4 8 14 2 12 12 6 25 15 22 23 20 8 9 18 12 11 8 10 12 16 16 16 16 12 13 13 11 9 7 7 7 6 4 5 4 4 3 2 2 3
9 6 16 12 7 11 8 2 8 13 8 1 3 10 7 9 15 2 6 4 6 12 16 15 16 16 14 14 13 12 10 9 7 7 7 5 5 4 2 3 3 3 4 5
14 12 7 7 10 19 7 3 17 6 1 2 2 2 1 5 3 2 4 8 12 15 16 15 15 13 12 12 12 11 10 8 7 7 7 5 3 3 3 6 3 4 4 4
8 8 9 13 8 3 3 2 2 1 2 1 1 2 4 5 3 3 5 7 8 10 10 9 13 14 8 7 8 11 8 8 8 8 7 5 4 3 3 4 5 4 4 3
3 1 4 4 3 4 5 2 3 5 4 2 2 1 3 3 6 5 6 8 8 10 10 9 12 13 9 7 7 8 8 7 8 9 7 5 5 5 4 3 3 3 2 2
1 3 4 3 3 1 5 2 2 3 2 2 3 2 2 6 5 5 5 6 8 9 8 10 12 11 9 8 8 6 7 7 8 8 7 6 5 4 2 2 2 2 3 3
4 3 3 2 1 3 3 2 2 4 4 4 4 2 2 6 7 5 6 7 9 11 10 9 9 12 10 8 7 6 5 6 9 9 6 5 5 2 3 2 2 9 10 10
Wind_Direction
210 123 180 183 189 160 147 174 184 141 293 136 207 255 254 254 224 230 223 239 229 215 228 216 201 182 172 170 173 174 179 187 179 181 192 191 202 198 200 199 195 182 185 179
84 208 212 187 187 184 165 162 138 56 111 132 178 252 250 231 225 206 212 223 231 208 162 146 137 120 123 144 183 182 186 183 187 182 190 188 181 191 205 194 198 192 184 185
157 216 187 170 175 159 174 168 178 159 163 329 29 297 256 252 223 221 218 211 212 212 180 150 131 114 86 104 146 208 194 192 190 182 175 146 143 130 185 200 207 200 187 187
184 227 180 160 183 138 168 181 134 122 99 206 102 275 293 239 232 204 231 208 186 144 124 128 117 93 98 3 341 328 251 198 197 181 180 189 198 196 194 196 199 199 187 189
223 150 159 189 184 156 192 133 129 132 102 89 309 42 270 292 248 237 226 209 200 170 148 141 138 125 86 42 342 298 285 236 224 187 184 186 196 203 145 163 182 192 201 198
160 308 118 154 61 126 152 81 46 48 75 311 226 168 272 216 221 243 207 182 156 145 139 137 129 116 86 42 360 348 232 235 189 180 168 184 204 163 160 181 190 195 200 197
73 38 355 120 78 2 101 88 52 19 355 221 359 226 244 240 228 214 198 169 171 150 140 138 131 111 97 84 51 52 95 65 100 114 141 186 215 166 186 192 189 174 171 186
150 194 178 196 153 169 167 159 154 181 196 227 339 234 246 258 306 181 152 147 141 141 141 147 148 147 122 85 64 67 76 73 73 86 90 89 117 90 77 70 78 85 120 74
127 222 14 61 121 145 223 198 163 103 34 64 230 289 297 189 222 164 152 146 164 164 164 156 144 139 119 83 75 85 74 64 61 74 80 75 76 78 81 71 67 69 59 42
166 118 353 244 134 40 167 152 82 6 127 247 269 267 238 227 230 204 196 194 183 172 166 157 137 125 120 116 100 87 79 77 74 71 65 63 67 81 85 82 76 75 70 60
123 104 283 140 214 158 129 177 166 137 158 174 208 258 221 212 200 200 208 190 183 175 167 151 146 141 126 110 95 89 81 85 76 75 74 72 66 65 64 65 61 69 68 54
171 115 161 200 243 237 191 196 169 163 220 202 157 256 207 247 239 187 193 187 186 174 148 140 144 149 137 125 113 107 99 92 89 83 80 75 72 67 68 64 58 56 66 60
173 203 81 3 341 354 209 204 196 115 71 206 147 257 357 299 149 212 183 174 164 148 148 152 159 166 154 136 120 110 103 98 90 85 81 72 68 72 68 64 61 65 70 60
136 153 192 206 201 140 194 192 199 193 167 216 232 244 263 214 194 197 177 163 157 163 172 173 162 159 152 144 134 125 112 105 101 94 90 85 74 75 73 66 58 64 67 70
145 206 146 208 95 150 186 191 195 207 225 182 243 241 226 210 203 206 182 167 176 182 179 177 173 166 154 142 137 127 117 111 109 104 101 96 93 88 85 75 69 64 57 59
106 244 121 219 210 219 217 208 207 215 221 235 245 258 169 199 210 183 189 181 187 196 192 179 165 167 164 159 150 139 135 130 124 114 113 111 100 86 80 80 75 74 73 67
144 126 89 255 161 99 301 228 199 217 216 218 224 240 179 194 207 205 201 194 199 200 187 183 181 176 167 161 155 151 144 132 112 121 113 108 98 91 91 88 90 78 70 66
128 124 112 170 83 190 254 173 209 210 216 225 249 236 194 218 228 220 203 192 205 196 193 186 170 165 160 146 137 127 127 121 118 117 109 99 92 101 92 86 64 61 53 47
181 145 137 162 203 285 273 199 148 169 244 216 230 243 231 221 280 258 182 201 207 201 192 179 166 153 142 144 143 136 132 128 132 130 117 104 105 101 91 87 84 54 53 46
79 181 197 124 177 220 21 220 166 101 261 182 214 233 232 126 226 254 202 202 190 164 161 158 152 143 143 150 144 141 142 137 136 131 118 108 120 117 121 112 104 76 58 55
177 178 206 213 235 279 235 145 139 172 245 220 190 228 216 198 232 281 172 153 144 149 143 141 149 153 150 146 147 144 136 142 139 128 125 128 120 136 123 97 70 58 54 55
177 173 184 194 214 253 174 351 171 212 52 95 49 67 199 235 330 6 126 123 132 135 142 149 142 140 141 143 141 142 145 140 133 128 113 89 63 56 73 80 52 62 75 74
203 195 174 190 212 231 193 85 81 89 109 91 99 358 156 158 182 133 119 107 117 128 128 128 135 127 116 118 141 138 138 141 133 123 119 114 119 95 74 77 66 53 54 59
260 162 182 121 185 209 177 70 75 47 53 7 327 47 154 180 176 140 129 134 128 131 131 127 133 137 127 118 106 122 134 130 138 127 119 119 96 84 61 60 93 106 97 93
226 140 176 295 250 36 45 71 96 110 79 334 325 1 203 160 176 156 137 136 141 137 131 144 146 142 130 115 115 125 131 146 134 124 125 124 115 120 105 95 131 136 217 123
191 190 185 158 265 85 94 350 18 150 222 242 248 251 205 172 178 158 157 157 151 148 144 138 137 134 134 129 129 134 151 159 151 134 141 135 131 127 133 110 81 64 58 58